Starlink 34838

operational
NORAD ID: 65343 Int'l Des: 2025-189 Owner: SPXS Country: US Constellation: starlink
LEOCIRCULAR

About Starlink 34838

Description loading...

Live Position

Loading 3D Globe...

Upcoming Passes

Altitude History

Altitude vs Time

uPlot chart will show altitude changes over time

Two-Line Element Set

1 65343U 25189W 26102.27301676 .00019791 00000-0 67855-3 0 9990
2 65343 53.1595 51.0923 0001283 87.6321 272.4827 15.30200142 36258
Epoch: Apr 12, 2026 • Age: 22 hours

Current Status

Altitude 475.4 km
Velocity 7.63 km/s
Sub-Earth Point 22.12°N, 153.77°E
Launch Date Aug 27, 2025
Age 0.6 years
Type internet

Technical Details

Classification Payload
Mass 575.00 kg
Dry Mass 530.00 kg
Total Mass 575.00 kg
Length 0.30 m
Diameter 4.10 m
Span 29.00 m
Shape Box + pan
Manufacturer SPXS
Bus Type Starlink V2MO
Phase Status In Orbit
Owner/State SPXS/US

Large Constellations

Loading constellations...